Location: Berbisdorf
(50.7638°N, 12.9442°E)
Time: 23:52:44
(UTC+00:00)

STARLINK-1371 - Pass Details

Date: 07 June 2020
Orbit: 549 x 550 km, 53.0° (Epoch: 11 July)

Event Time Altitude Azimuth Distance (km) Brightness Sun altitude
Rises 00:08:49 0° 275° (W) 2,715 7.1 -15.2°
Reaches altitude 10° 00:11:05 10° 279° (W) 1,821 6.2 -15.1°
Maximum altitude 00:15:11 62° 1° (N) 619 4.1 -14.9°
Drops below altitude 10° 00:19:17 10° 83° (E) 1,819 6.6 -14.8°
Sets 00:21:32 0° 87° (E) 2,712 7.4 -14.6°
